EW1631 Weather Reports


time (UTC)temp
C
wind
direction
speed
KPH
gust
KPH
rain 1hr
cm
rain 24hr
cm
rain mn
cm
humidity
%
barometer
mb
20200218210038 26 109 4.8 8.0 0.00 0.00 0.00 15 1011.6
20200218204618 26 115 3.2 11.3 0.00 0.00 0.00 16 1011.7
20200218203028 25 109 1.6 8.0 0.00 0.00 0.00 17 1012.5
20200218200106 25 103 3.2 11.3 0.00 0.00 0.00 17 1012.6
20200218194640 25 95 4.8 9.7 0.00 0.00 0.00 17 1012.8
20200218193113 24 83 4.8 12.9 0.00 0.00 0.00 18 1013.2
20200218190200 23 65 3.2 14.5 0.00 0.00 0.00 19 1013.6
20200218184657 23 54 9.7 16.1 0.00 0.00 0.00 18 1013.6
20200218180215 22 98 4.8 9.7 0.00 0.00 0.00 22 1013.8
20200218174738 22 128 1.6 4.8 0.00 0.00 0.00 29 1013.7
20200218173204 20 360 0.0 0.0 0.00 0.00 0.00 36 1013.6
20200218170148 19 360 0.0 0.0 0.00 0.00 0.00 37 1013.6
20200218164608 17 360 1.6 4.8 0.00 0.00 0.00 41 1013.7
20200218160117 14 359 1.6 4.8 0.00 0.00 0.00 49 1013.2
20200218154741 12 359 1.6 4.8 0.00 0.00 0.00 52 1013.1
20200218153113 11 358 1.6 6.4 0.00 0.00 0.00 56 1012.7
20200218150046 10 352 0.0 1.6 0.00 0.00 0.00 57 1012.6
20200218144535 10 352 0.0 1.6 0.00 0.00 0.00 56 1012.4
20200218143122 11 352 3.2 6.4 0.00 0.00 0.00 55 1011.9
20200218140153 11 352 0.0 3.2 0.00 0.00 0.00 54 1011.7
20200218134535 11 352 0.0 3.2 0.00 0.00 0.00 53 1011.5
20200218133040 12 352 0.0 0.0 0.00 0.00 0.00 52 1011.5
20200218130012 12 352 1.6 4.8 0.00 0.00 0.00 50 1011.3
20200218124545 12 352 1.6 4.8 0.00 0.00 0.00 49 1011.2
20200218123036 13 352 0.0 1.6 0.00 0.00 0.00 48 1011.0
20200218120030 12 355 1.6 6.4 0.00 0.00 0.00 50 1010.8
20200218114538 12 357 0.0 6.4 0.00 0.00 0.00 51 1010.7
20200218113103 12 359 3.2 4.8 0.00 0.00 0.00 51 1010.7
20200218110050 13 359 0.0 1.6 0.00 0.00 0.00 47 1010.7
20200218104611 13 359 0.0 0.0 0.00 0.00 0.00 47 1010.6
20200218103050 13 359 0.0 4.8 0.00 0.00 0.00 46 1010.6
20200218100006 14 359 0.0 3.2 0.00 0.00 0.00 44 1010.7
20200218094725 15 359 1.6 6.4 0.00 0.00 0.00 43 1010.7
20200218093122 15 326 0.0 3.2 0.00 0.00 0.00 43 1010.8
20200218090105 17 327 0.0 4.8 0.00 0.00 0.00 38 1010.7
20200218084616 16 336 1.6 8.0 0.00 0.00 0.00 39 1010.8
20200218083132 16 211 3.2 6.4 0.00 0.00 0.00 40 1010.8
20200218080106 17 312 1.6 8.0 0.00 0.00 0.00 37 1010.7
20200218074628 17 309 4.8 9.7 0.00 0.00 0.00 36 1010.7
20200218073130 17 347 1.6 6.4 0.00 0.00 0.00 36 1010.6
20200218070058 17 310 4.8 9.7 0.00 0.00 0.00 37 1010.6
20200218064622 17 298 9.7 14.5 0.00 0.00 0.00 37 1010.6
20200218063117 16 182 6.4 11.3 0.00 0.00 0.00 42 1010.6
20200218060005 15 133 0.0 3.2 0.00 0.00 0.00 42 1010.7
20200218054503 16 133 0.0 0.0 0.00 0.00 0.00 41 1010.7
20200218050135 15 133 0.0 3.2 0.00 0.00 0.00 44 1010.3
20200218044531 15 133 0.0 1.6 0.00 0.00 0.00 44 1010.3
20200218040004 16 133 0.0 3.2 0.00 0.00 0.00 42 1009.7
20200218034504 16 133 3.2 6.4 0.00 0.00 0.00 42 1009.6
20200218030128 19 132 0.0 1.6 0.00 0.00 0.00 35 1009.1
20200218024638 20 132 0.0 3.2 0.00 0.00 0.00 32 1009.0
20200218020046 22 132 0.0 0.0 0.00 0.00 0.00 27 1008.7
20200218014557 23 132 0.0 0.0 0.00 0.00 0.00 26 1008.6
20200218010010 25 132 3.2 8.0 0.00 0.00 0.00 23 1008.3
20200218004502 26 132 3.2 6.4 0.00 0.00 0.00 22 1008.3
20200218000034 26 131 0.0 9.7 0.00 0.00 0.00 20 1008.5
20200217234609 26 132 1.6 11.3 0.00 0.00 0.00 21 1008.4
20200217233039 26 131 1.6 8.0 0.00 0.00 0.00 20 1008.4
20200217230133 27 132 4.8 16.1 0.00 0.00 0.00 20 1008.5
20200217224553 26 115 1.6 12.9 0.00 0.00 0.00 21 1008.6
20200217220012 26 116 4.8 9.7 0.00 0.00 0.00 22 1009.0
20200217214526 26 116 1.6 11.3 0.00 0.00 0.00 22 1009.1
20200217213003 26 129 4.8 11.3 0.00 0.00 0.00 22 1009.3